Flag for Canada Weather past 2 weeks in Rankin Inlet, Nunavut Territory, Canada

Now
12 °F

Light snow. Mostly cloudy.


Feels Like: -4 °F
Forecast: 7 / 14 °F
Wind: 15 mph from Southeast

Location: Rankin Inlet

Current Time: Dec 21, 2014 at 4:03:52 AM

Latest Report: Dec 21, 2014 at 3:00 AM


Visibility: 10 mi

Pressure: 29.68 "Hg

Humidity: 92%

Dew point: 10 °F

Location of Rankin InletLocation

Historic Weather in Rankin Inlet — Graph

°F

Rankin Inlet temperature yesterday

Maximum temperature yesterday: 12 °F (at 11:00 PM)
Minimum temperature yesterday: -11 °F (at 4:00 AM)
Average temperature yesterday: -1 °F

Past Weeks' High & Low Weather Summary

 TemperatureHumidityPressure
High16 °F (Dec 10, 7:00 PM)92% (Dec 9, 9:00 PM)30.45 "Hg (Dec 9, 9:00 PM)
Low-26 °F (Dec 6, 3:00 AM)61% (Dec 6, 5:00 AM)29.31 "Hg (Dec 10, 8:00 PM)
Average-3 °F78%30.00 "Hg
* Reported Dec 6 3:00 AM — Dec 21 3:00 AM, Rankin Inlet, Weather by CustomWeather, © 2014

Note: Actual official high and low records may vary slightly from our data, if they occured in-between our weather recording intervals... More about our weather records

Advertising

Rankin Inlet weather history for previous 24 hours

 ConditionsComfort  
Time TempWeatherWind HumidityBarometerVisibility
3:00 AM
Dec 21
12 °FLight snow. Mostly cloudy.15 mph92%29.68 "Hg10 mi
2:00 AM12 °FLight snow. Low clouds.18 mph92%29.70 "Hg8 mi
1:00 AM14 °FLight snow. Low clouds.18 mph85%29.71 "Hg6 mi
12:00 AM12 °FLight snow. Low clouds.16 mph92%29.72 "Hg6 mi
11:00 PM
Dec 20
12 °FLight snow. Low clouds.16 mph85%29.75 "Hg8 mi
10:00 PM10 °FLight snow. Low clouds.20 mph85%29.76 "Hg8 mi
9:00 PM10 °FLight snow. Mostly cloudy.15 mph85%29.79 "Hg10 mi
8:00 PM9 °FLight snow. Mostly cloudy.15 mph85%29.80 "Hg10 mi
7:00 PM7 °FLight snow. Mostly cloudy.15 mph78%29.81 "Hg8 mi
6:52 PM7 °FLight snow. Mostly cloudy.15 mph85%29.81 "Hg8 mi
6:00 PM3 °FSnow flurries. Mostly cloudy.13 mph85%29.84 "Hg15 mi
5:00 PM1 °FSnow flurries. Overcast.12 mph85%29.87 "Hg15 mi
4:00 PM1 °FSnow flurries. Overcast.14 mph78%29.87 "Hg15 mi
3:00 PM1 °FSnow flurries. Overcast.14 mph78%29.88 "Hg15 mi
2:00 PM1 °FSnow flurries. Low clouds.9 mph85%29.89 "Hg15 mi
1:00 PM1 °FSnow flurries. Low clouds.9 mph78%29.89 "Hg15 mi
12:00 PM0 °FSnow flurries. Low clouds.5 mph84%29.91 "Hg15 mi
11:55 AM0 °FSnow flurries. Low clouds.5 mph78%29.92 "Hg15 mi
11:00 AM-2 °FSnow flurries. Partly sunny.3 mph77%29.92 "Hg15 mi
10:00 AM-4 °FSnow flurries. Partly sunny.3 mph84%29.94 "Hg15 mi
9:00 AM-6 °FSnow flurries. Passing clouds.9 mph77%29.93 "Hg15 mi
8:00 AM-9 °FSnow flurries. Clear.6 mph77%29.92 "Hg15 mi
7:00 AM-9 °FSnow flurries. Clear.3 mph70%29.93 "Hg15 mi
6:00 AM-11 °FSnow flurries. Clear.12 mph76%29.93 "Hg15 mi
5:00 AM-11 °FSnow flurries. Clear.14 mph76%29.93 "Hg15 mi
4:00 AM-11 °FSnow flurries. Clear.12 mph76%29.91 "Hg15 mi
Weather by CustomWeather, © 2014

See weather overviewHow to use our weather pages